Location: *
(58.4167°N, 22.5000°E)
Time: 12:19:29
(UTC+00:00)

Cosmos 2154 Rocket - Pass Details

Date: 22 September 2019
Orbit: 965 x 997 km, 82.9° (Epoch: 21 October)

Event Time Altitude Azimuth Distance (km) Brightness Sun altitude
Rises 16:57:42 0° 347° (NNW) 3,673 7.3 -4.4°
Reaches altitude 10° 17:00:13 10° 348° (NNW) 2,721 6.6 -4.7°
Maximum altitude 17:06:28 87° 76° (ENE) 977 4.1 -5.5°
Drops below altitude 10° 17:12:41 10° 168° (SSE) 2,707 6.1 -6.3°
Sets 17:15:11 0° 169° (SSE) 3,653 6.8 -6.6°
